Location: Andrest
(43.3200°N, 0.0641°E)
Time: 13:58:20
(UTC+00:00)

Cosmos 1939 Rocket - Pass Details

Date: 01 December 2020
Orbit: 532 x 584 km, 97.4° (Epoch: 24 January)

Event Time Altitude Azimuth Distance (km) Brightness Sun altitude
Rises 17:30:07 0° 146° (SSE) 2,672 6.2 -11.6°
Reaches altitude 10° 17:32:19 10° 138° (SE) 1,791 5.2 -12.0°
Maximum altitude 17:35:52 36° 71° (ENE) 874 3.3 -12.6°
Drops below altitude 10° 17:39:29 10° 5° (N) 1,827 5.3 -13.2°
Sets 17:41:45 0° 357° (N) 2,734 6.2 -13.6°
